Location: Karcze
(52.0945°N, 22.4786°E)
Time: 12:45:50
(UTC+00:00)

Abrixas rocket - Pass Details

Date: 14 July 2020
Orbit: 339 x 347 km, 48.4° (Epoch: 07 August)

Event Time Altitude Azimuth Distance (km) Brightness Sun altitude
Exits shadow 00:03:04 34° 212° (SSW) 586 2.4 -13.9°
Maximum altitude 00:03:32 37° 186° (S) 548 2.3 -13.8°
Drops below altitude 10° 00:06:14 10° 116° (ESE) 1,283 4.7 -13.7°
Sets 00:08:18 0° 108° (ESE) 2,120 5.9 -13.6°
